Run Scotland Loch Rannoch Half Marathon 2016
Skip Navigation Links
Results
Details
16 October 2016
HyperLink
Page 1 of 2 (95 items)
[1]2
Pos
Race No
Fav
Print
Name
Time
Category
Cat Pos
Gender
Gen Pos
Club
Pace
1162David LIMMER01:14:41SEN1Male1Unattached5:42 m/hr
2159Johnny LAWSON01:17:15V401Male2Portobello Running Club5:53 m/hr
3147Alan HERON01:21:32SEN2Male3Dumbarton AAC6:13 m/hr
4129Martin FERGUSON01:23:43V501Male4Edinburgh Athletic Club6:23 m/hr
582Vinnie STEWART01:29:03SEN3Male5Unattached6:47 m/hr
64Craig TAYLOR01:29:09V402Male6Portobello Running Club6:48 m/hr
7168Rory MATHESON01:30:13SEN4Male7Unattached6:53 m/hr
8166Ewan MACPHEE01:31:15SEN5Male8Unattached6:57 m/hr
9138Lisa GRANTHAM01:31:29V401Female1Pensby Runners6:59 m/hr
10155Emma KAY01:34:54V351Female2Victoria Park City Of Glasgow7:14 m/hr
11148Barnaby HIRONS01:35:10SEN6Male9Unattached7:15 m/hr
1249David WHITE01:35:14SEN7Male10Helm Hill Runners7:16 m/hr
13550Kathleen Aubrey01:35:14V501Female3PSUK/Cumbria7:16 m/hr
14132Derek FRASER01:36:00V502Male11Edinburgh Athletic Club7:19 m/hr
15530Robert MILLS 01:38:02V551Male12PSUK/West Mids7:29 m/hr
16173Brian MCGIBBON01:39:28SEN8Male13Forfar Road Runners7:35 m/hr
1738Fiona WRIGHT01:40:32V402Female4Portobello Running Club7:40 m/hr
185alex TUFF01:43:16V503Male14Unattached7:52 m/hr
19113Andrew CONNELLY01:44:17SEN9Male15Unattached7:57 m/hr
20144John HAMILTON01:44:56V403Male16Unattached8:00 m/hr
21197Aileen ROSS01:44:57V551Female5Portobello Running Club8:00 m/hr
22112Lucy COLLEY01:45:00SEN1Female6Unattached8:00 m/hr
23165David MACIVER01:46:01V504Male17Unattached8:05 m/hr
24187Oliver Pound01:46:04SEN10Male18Portobello Running Club8:05 m/hr
25130Ryan FERGUSON01:47:27SEN11Male19Lothian Running Club8:12 m/hr
26146John HENDERSON01:47:48V451Male20Unattached8:13 m/hr
2763Mandy SCOTT01:47:53V502Female7Corstorphine AAC8:14 m/hr
28108Darren BURGESS01:48:03V452Male21Unattached8:14 m/hr
29128Anthony FEENEY01:48:50V453Male22Unattached8:18 m/hr
30230Robbie YATES01:49:18V454Male23Portobello Running Club8:20 m/hr
31200Dean SCOTT01:49:48SEN12Male24Unattached8:22 m/hr
3252Alan WEIR01:50:01V455Male25Unattached8:23 m/hr
3369Rosalind SHANKS01:50:50SEN2Female8Forfar Road Runners8:27 m/hr
34158Jenny LAW01:51:28SEN3Female9Unattached8:30 m/hr
35198Anne RUTHERFORD01:52:22V552Female10Portobello Running Club8:34 m/hr
36790Dyfan Dwyfor01:52:37SEN13Male26Hebog Runners8:35 m/hr
37266Mike WEST01:52:50V505Male27Unattached8:36 m/hr
38153Nicholas JENNINGS01:53:11SEN14Male28Unattached8:38 m/hr
39174Elizabeth-Anne MCGONIGLE01:53:31V403Female11Unattached8:39 m/hr
40140Robert GRICE01:53:58V506Male29Reading Roadrunners8:41 m/hr
41199Nuchelle SCOBIE01:54:04SEN4Female12Portobello Running Club8:42 m/hr
42154Gosia KARCZEWSKA01:55:08V352Female13Portobello Running Club8:47 m/hr
4320Frances VAUGHAN01:57:22SEN5Female14Unattached8:57 m/hr
44116Collette COYLE01:57:31V404Female15Unattached8:58 m/hr
45180Julie MOFFAT01:57:31V451Female16Portobello Running Club8:58 m/hr
46136Shona GRAHAM01:57:39SEN6Female17Unattached8:58 m/hr
47181Hannah MORGAN01:58:31SEN7Female18Unattached9:02 m/hr
48157CAMERON LAW01:59:46V601Male30Portobello Running Club9:08 m/hr
49142Andrew Haddow02:00:27V602Male31Bellahouston Road Runners9:11 m/hr
50193Andrew REYNOLDS02:00:47SEN15Male32Unattached9:13 m/hr
Page 1 of 2 (95 items)
[1]2
fb